Date,TemperatureHighF,TemperatureAvgF,TemperatureLowF,DewpointHighF,DewpointAvgF,DewpointLowF,HumidityHigh,HumidityAvg,HumidityLow,PressureMaxIn,PressureMinIn,WindSpeedMaxMPH,WindSpeedAvgMPH,GustSpeedMaxMPH,PrecipitationSumIn
2013-2-1,6.5,-0.2,-6.1,2.7,-6.1,-11.5,84,76,64,30.23,30.05,7,1,7,0.00
2013-2-2,10.6,0.5,-11.8,2.1,-5.8,-16.7,85,75,65,30.22,30.03,6,0,6,0.00
2013-2-3,9.9,4.9,-2.3,3.5,-1.2,-7.0,82,76,62,30.07,29.93,11,1,11,0.00
2013-2-4,12.6,-0.6,-15.1,1.5,-7.6,-20.4,96,72,57,30.10,29.94,5,0,5,0.00
2013-2-5,20.3,11.1,-1.1,14.3,5.8,-6.0,86,79,65,30.12,29.76,14,1,14,0.00
2013-2-6,23.7,10.3,-6.0,16.0,5.1,-10.8,90,80,55,30.27,30.12,10,0,10,0.00
2013-2-7,23.2,19.3,16.6,20.6,16.5,12.0,90,88,82,30.30,30.18,8,1,8,0.00
2013-2-8,22.2,14.0,7.1,13.2,8.6,2.8,87,79,63,30.44,30.30,10,1,10,0.00
2013-2-9,28.2,17.5,9.1,18.9,13.0,5.5,98,83,64,30.43,30.14,14,2,14,0.00
2013-2-10,32.5,25.6,19.7,31.0,23.5,17.2,94,92,90,30.14,29.36,13,1,13,0.00
2013-2-11,33.1,27.3,20.3,31.5,25.0,17.2,94,91,87,29.89,29.28,9,2,9,0.00
2013-2-12,23.4,20.4,18.1,18.5,16.6,14.6,96,85,78,29.98,29.78,12,1,12,0.00
2013-2-13,37.4,27.3,18.3,28.3,22.5,15.1,90,83,65,29.78,29.66,7,0,7,0.01
2013-2-14,28.7,23.2,14.0,25.9,18.9,8.0,90,83,76,30.04,29.66,16,3,16,0.00
2013-2-15,17.5,10.3,-1.6,10.2,4.3,-6.2,85,76,62,30.23,30.03,9,1,9,0.00
2013-2-16,12.6,3.5,-9.6,3.5,-3.2,-15.0,88,74,56,30.27,30.18,12,1,12,0.00
2013-2-17,23.0,5.1,-18.0,6.4,-5.5,-23.4,92,63,41,30.28,30.01,13,1,13,0.00
2013-2-18,36.4,27.1,16.4,28.7,20.9,5.3,91,78,61,30.01,29.48,14,2,14,0.03
2013-2-19,27.0,13.1,7.8,24.4,8.0,1.6,91,80,69,30.15,29.46,19,6,19,0.00
2013-2-20,15.9,9.5,5.0,7.7,3.7,0.4,91,77,67,30.51,30.15,19,4,19,0.00
2013-2-21,25.7,16.0,4.8,17.2,11.4,0.5,90,82,66,30.57,30.30,11,2,11,0.00
2013-2-22,23.3,20.5,17.5,20.5,17.9,14.8,91,89,88,30.30,29.84,12,2,12,0.00
2013-2-23,32.5,22.8,13.2,28.5,19.9,10.3,91,88,83,29.92,29.80,7,1,7,0.00
2013-2-24,32.2,25.7,17.2,23.3,20.0,13.1,92,79,65,30.15,29.92,6,1,6,0.01
2013-2-25,34.4,26.5,13.5,26.2,20.7,9.9,92,79,66,30.18,30.12,9,0,9,0.00
2013-2-26,32.4,29.3,26.1,26.6,23.8,21.8,87,80,69,30.16,29.91,13,2,13,0.00
2013-2-27,31.0,28.8,27.0,26.0,24.6,23.1,92,84,79,29.93,29.82,18,5,18,0.00
2013-2-28,28.9,23.5,19.4,26.8,18.4,14.0,92,81,69,30.25,29.93,20,5,20,0.00